Flag for USA

Past Weather in Newport, Oregon, USA — Yesterday and Last 2 Weeks

Now
57 °F

Cool.


Feels Like: 57 °F
Forecast: 63 / 53 °F
Wind: 2 mph from North

Location: Newport - MADIS Station
Current Time: Aug 12, 2020 at 12:19:12 am
Latest Report: Aug 11, 2020 at 10:30 pm
Visibility: N/A
Pressure29.86 "Hg
Humidity: 87%
Dew Point: 53 °F
Location of NewportLocation

Past Weather in Newport — Graph

°F

Newport Temperature Yesterday

Maximum temperature yesterday: 65 °F (at 2:55 pm)
Minimum temperature yesterday: 54 °F (at 3:30 am)
Average temperature yesterday: 59 °F

High & Low Weather Summary for the Past Weeks

 TemperatureHumidityPressure
High68 °F (Aug 7, 4:30 pm)98% (Jul 28, 6:31 am)30.10 "Hg (Jul 28, 6:31 am)
Low51 °F (Jul 29, 6:30 am)75% (Aug 8, 11:30 pm)29.74 "Hg (Jul 28, 7:30 pm)
Average59 °F90%29.92 "Hg
* Reported Jul 27 10:40 pm — Aug 11 10:30 pm, Newport. Weather by CustomWeather, © 2020

Note: Actual official high and low records may vary slightly from our data, if they occured in-between our weather recording intervals... More about our weather records

Newport Weather History for the Previous 24 Hours

Scroll right to see more
 ConditionsComfort  
Time TempWeatherWind HumidityBarometerVisibility
10:30 pm
Tue, Aug 11
57 °FCool.2 mph87%29.86 "HgN/A
9:30 pm58 °FCool.2 mph87%29.86 "HgN/A
9:25 pm58 °FCool.3 mph87%29.85 "HgN/A
8:30 pm58 °FCool.4 mph86%29.84 "HgN/A
7:40 pm61 °FCool.5 mph83%29.84 "HgN/A
6:30 pm61 °FCool.3 mph80%29.84 "HgN/A
4:30 pm61 °FCool.4 mph78%29.86 "HgN/A
3:26 pm65 °FCool.5 mph75%29.87 "HgN/A
2:55 pm65 °FCool.5 mph75%29.87 "HgN/A
1:26 pm63 °FCool.6 mph78%29.88 "HgN/A
12:30 pm64 °FCool.4 mph75%29.87 "HgN/A
11:30 am63 °FCool.3 mph77%29.87 "HgN/A
8:30 am60 °FCool.2 mph84%29.87 "HgN/A
7:30 am58 °FCool.2 mph87%29.86 "HgN/A
5:36 am55 °FQuite cool.1 mph91%29.85 "HgN/A
5:30 am55 °FQuite cool.1 mph91%29.85 "HgN/A
4:41 am55 °FQuite cool.1 mph91%29.85 "HgN/A
4:25 am55 °FQuite cool.1 mph91%29.85 "HgN/A
3:30 am54 °FQuite cool.No wind89%29.84 "HgN/A
2:25 am56 °FCool.1 mph90%29.84 "HgN/A
1:30 am56 °FCool.3 mph91%29.86 "HgN/A
12:30 am56 °FCool.3 mph91%29.86 "HgN/A
Weather by CustomWeather, © 2020

See weather overview